Probability
4 7 15 20 18 15 14 12 10 8 6 5 5 5 4 2 1 2 2 3 3 3 2 1 0 0 0 0 0 0 0 0 0 0 0 0 0 0 0 0 0 0 0
7 10 16 20 19 17 16 13 9 6 5 5 5 5 4 3 2 2 2 3 3 3 2 1 0 0 0 0 0 0 0 0 0 0 0 0 0 0 0 0 0 0 0
9 10 13 17 21 20 17 12 7 5 4 4 4 4 4 3 3 3 3 3 3 3 3 1 1 1 1 1 0 0 0 0 0 0 0 0 0 0 0 0 0 0 0
7 6 8 14 21 21 17 12 7 4 3 3 3 3 3 3 3 3 3 3 3 3 3 3 2 2 2 2 1 0 0 0 0 0 0 0 0 0 0 0 0 0 0
5 4 7 15 20 21 18 13 8 5 3 3 3 3 3 3 3 3 3 3 3 3 3 3 3 3 3 3 2 1 0 0 0 0 0 0 0 0 0 0 0 0 0
4 4 9 15 19 20 18 14 10 6 3 3 3 3 3 3 3 3 3 3 4 3 3 3 3 3 3 3 3 2 0 0 0 0 0 0 0 0 0 0 0 0 0
5 6 10 14 17 19 17 15 12 8 4 4 4 4 3 3 3 3 3 4 5 4 4 3 3 3 3 3 2 1 0 0 0 0 0 0 0 0 0 0 0 0 0
5 8 11 13 14 14 15 15 12 9 6 4 5 5 4 3 3 3 3 4 5 6 5 4 3 3 3 3 1 0 0 0 0 0 0 0 0 0 0 0 0 0 0
5 7 9 10 9 9 10 10 8 7 6 5 5 5 4 3 3 2 3 3 4 5 5 4 3 2 2 2 1 0 0 0 0 0 0 0 0 0 0 0 0 0 0
2 3 4 5 6 6 6 5 4 4 4 4 5 4 3 2 1 1 1 2 3 3 4 3 1 1 1 1 0 0 0 0 0 0 0 0 0 0 0 0 0 0 0
1 0 0 1 3 5 5 4 2 2 1 2 2 2 1 1 0 0 0 1 1 1 1 1 0 0 0 0 0 0 0 0 0 0 0 0 0 0 0 0 1 1 1
0 0 0 0 1 4 5 5 4 2 1 1 1 0 0 0 0 0 0 0 0 0 0 0 0 0 1 1 1 0 0 0 0 0 0 0 0 0 0 0 1 2 2
0 0 0 0 1 3 4 5 6 5 2 1 0 0 0 0 0 0 0 0 0 0 0 0 0 0 1 2 1 1 1 1 0 0 0 0 0 0 0 0 0 1 1
1 0 0 1 2 2 3 5 6 6 3 1 0 0 0 0 0 0 0 0 0 0 0 0 0 0 1 1 1 1 2 2 1 1 0 0 0 0 0 0 1 1 2
1 0 0 1 2 2 2 3 6 6 4 2 1 0 1 1 0 0 0 0 0 0 0 0 0 0 1 1 1 1 2 1 2 2 1 0 0 0 0 0 1 2 2
1 1 0 1 2 2 2 3 3 4 5 5 3 2 2 2 1 1 0 0 0 0 0 0 0 0 1 1 0 1 1 0 1 1 1 0 0 0 0 0 1 2 2
2 2 1 1 1 2 3 3 2 2 4 6 5 4 3 3 3 2 1 0 0 0 0 0 0 0 0 0 0 0 0 0 0 0 0 0 0 0 0 0 0 1 1
1 2 2 2 2 3 3 3 2 2 3 5 6 5 4 3 3 2 1 0 0 0 0 0 0 0 0 0 0 0 0 0 0 0 0 0 0 0 0 0 0 0 1
0 1 1 2 2 2 3 3 2 2 3 4 5 5 5 4 3 2 1 0 0 0 0 0 0 0 0 0 0 0 0 0 0 0 0 0 0 0 0 0 0 0 0
0 0 0 1 1 1 3 3 2 1 2 3 4 4 4 3 3 2 1 0 0 0 0 0 0 0 0 0 0 0 0 0 0 0 0 0 0 0 0 0 0 0 0
0 0 0 0 0 1 2 2 2 1 1 1 2 2 3 3 3 2 1 0 0 0 0 0 0 0 0 0 0 0 0 0 0 0 0 0 0 0 0 0 0 0 0
1 0 0 0 0 0 1 1 1 2 1 1 1 1 1 3 3 2 1 0 0 0 0 0 0 0 0 0 0 0 0 0 0 0 0 0 0 0 0 0 0 0 0
2 1 0 0 1 0 0 0 1 2 2 1 0 0 1 2 3 3 2 1 0 0 0 0 0 0 0 0 0 0 0 0 0 0 0 0 0 0 0 0 0 0 0
2 2 1 0 0 0 0 0 0 1 1 1 0 0 0 1 2 3 2 1 0 0 0 0 0 0 0 0 0 0 0 0 0 0 0 0 0 0 0 0 0 0 0
1 2 2 1 0 0 0 0 0 0 0 0 0 0 0 0 1 2 2 1 0 0 0 0 0 0 0 0 0 0 0 0 0 0 0 0 0 0 0 0 0 0 0
0 1 2 1 0 0 0 0 0 0 0 0 0 0 0 0 0 1 1 0 0 0 0 0 0 0 0 0 0 0 0 0 0 0 0 0 0 0 0 0 0 0 0
Wind_Speed
5 7 7 8 9 9 9 9 9 9 9 9 9 9 9 10 10 10 10 10 10 11 11 11 12 12 12 12 13 13 13 12 12 12 12 13 13 13 13 12 11 9 13
6 8 8 8 8 9 9 9 9 8 9 9 9 9 9 10 10 10 10 10 10 10 11 11 12 12 12 12 12 11 11 10 10 9 10 10 11 12 13 12 11 8 12
7 9 7 7 8 9 9 9 8 8 8 8 8 9 9 9 9 9 9 10 10 10 11 11 11 11 11 11 11 10 9 8 7 6 6 4 6 11 12 11 11 12 12
7 8 7 7 8 9 9 9 8 8 7 8 8 8 8 8 9 9 9 9 10 10 10 10 10 10 10 11 10 9 8 6 5 5 4 4 5 9 10 10 10 11 11
6 7 7 8 8 9 9 8 8 7 7 7 8 7 8 8 8 8 8 9 9 9 9 10 10 10 10 10 9 8 7 6 6 4 4 5 4 8 9 9 9 10 10
6 6 8 8 9 9 9 8 8 7 7 7 7 7 7 7 7 7 7 8 8 9 9 9 9 9 9 9 9 8 7 6 5 4 4 5 4 8 9 8 8 8 8
5 6 8 7 8 9 8 8 8 7 7 7 7 7 6 6 6 6 7 7 8 8 8 8 8 8 8 8 8 7 6 6 4 4 4 5 5 7 8 8 8 8 8
5 6 7 7 7 7 8 8 7 6 6 6 7 6 6 5 5 6 6 7 7 8 8 7 7 7 7 7 6 6 6 5 4 5 5 5 6 7 7 7 7 7 8
5 5 5 5 5 6 7 7 7 6 6 6 6 6 6 6 6 6 6 6 7 7 7 6 6 6 6 6 5 5 4 6 4 3 5 4 6 7 8 7 7 7 7
4 4 4 4 4 4 5 6 7 7 6 6 6 6 6 6 6 7 6 6 6 6 6 6 5 5 6 5 4 3 4 4 2 4 3 4 6 7 6 6 6 6 6
3 3 4 4 3 3 4 5 6 6 5 5 5 5 5 3 3 4 5 6 5 5 5 5 5 5 4 4 3 2 2 1 3 3 3 5 5 5 5 5 5 5 5
2 2 2 3 3 3 3 4 3 4 3 3 3 3 3 2 2 3 5 6 6 5 5 5 4 4 2 1 1 1 1 1 2 3 3 5 4 4 4 4 4 4 4
3 2 2 2 3 3 2 2 2 2 2 2 3 3 2 2 2 2 2 3 3 3 2 3 2 1 1 1 1 0 1 1 2 2 3 4 4 3 3 3 3 3 3
2 2 1 2 2 2 3 2 2 2 2 2 2 3 2 2 2 2 1 2 1 1 1 1 1 1 1 1 1 1 1 1 1 2 2 4 3 3 3 2 3 3 3
2 2 2 1 2 2 2 2 3 2 2 2 2 2 2 2 2 2 1 1 1 1 2 1 1 1 1 1 1 1 1 1 1 1 2 3 3 3 3 3 3 3 3
2 2 2 2 2 2 2 2 2 2 2 3 3 2 3 2 2 2 2 2 1 1 1 1 1 1 1 1 1 1 1 1 1 1 1 1 2 3 3 3 3 3 3
2 1 2 2 2 2 2 2 2 2 2 2 3 3 3 2 2 2 2 2 1 1 1 1 2 1 1 1 0 0 0 1 1 1 1 1 0 1 3 3 4 4 4
2 2 2 1 2 2 2 2 2 2 3 2 2 3 3 3 3 2 2 2 1 1 1 1 1 1 1 1 0 0 0 0 0 1 1 0 0 0 1 3 4 5 5
2 2 2 2 2 2 2 2 1 2 3 2 2 3 3 3 3 2 2 2 2 1 1 1 1 1 1 1 1 1 1 1 1 1 1 0 0 0 0 2 3 4 5
1 1 1 1 2 2 2 2 1 1 2 2 2 3 4 3 3 2 2 2 2 2 1 1 1 1 1 1 0 0 1 1 1 1 1 1 1 1 0 1 1 2 4
2 1 1 1 2 2 2 2 2 2 2 2 2 3 4 3 3 3 2 2 2 2 2 2 1 1 1 1 1 1 1 2 2 2 2 1 1 1 1 1 1 1 1
1 1 1 1 1 1 2 2 2 2 2 2 2 3 3 3 3 3 3 3 2 2 2 2 1 1 1 1 1 1 1 1 1 1 1 1 1 1 1 2 1 1 1
1 0 0 0 0 1 1 1 1 1 1 1 2 3 3 3 4 3 3 3 2 2 2 2 2 2 2 1 1 2 2 2 1 1 2 1 1 1 2 2 2 2 1
1 1 0 0 0 0 1 2 3 2 2 2 2 2 2 3 3 3 3 3 3 2 2 2 2 2 2 2 1 1 1 1 1 1 1 1 2 2 2 2 1 1 1
2 1 1 1 1 0 1 2 2 2 2 1 2 3 3 3 3 3 3 3 2 2 2 3 2 2 2 2 2 1 2 1 1 2 2 2 2 2 2 2 1 1 1
2 2 1 1 2 2 1 1 2 2 2 2 2 2 2 2 2 3 3 3 3 2 2 2 2 3 2 2 2 2 2 2 2 2 3 2 2 2 2 1 1 1 1
Wind_Direction
106 123 125 120 120 118 114 112 116 116 114 114 112 111 107 104 101 96 97 96 95 95 94 91 89 87 82 79 76 74 73 71 71 69 68 68 68 67 65 63 63 60 65
114 125 125 119 121 121 115 110 111 116 118 118 117 114 109 105 102 99 97 96 96 96 94 91 88 87 84 82 79 76 74 72 69 67 69 66 66 67 66 64 64 66 66
109 122 131 115 119 119 115 112 112 113 118 121 121 118 113 108 106 105 103 97 94 95 94 92 89 86 84 83 81 78 74 67 59 56 66 66 66 69 68 66 65 66 66
110 123 133 118 119 121 119 118 118 118 119 119 119 118 116 113 111 110 106 101 97 95 94 92 89 88 86 83 81 78 71 57 42 41 63 64 65 71 67 66 64 64 64
107 119 124 121 123 124 122 120 120 123 127 124 120 117 116 115 117 111 109 107 102 98 95 93 91 90 88 84 80 73 61 44 25 27 58 60 60 71 69 66 64 63 62
106 115 122 127 127 128 127 126 124 124 128 126 124 120 116 115 114 114 109 109 108 104 99 97 94 92 89 85 79 67 54 38 15 45 59 59 59 68 70 69 66 64 62
107 111 124 125 128 131 132 131 128 129 128 126 122 119 116 111 113 117 116 114 113 110 106 101 98 95 93 88 79 65 46 30 19 48 58 59 61 68 70 69 66 64 62
107 113 125 122 121 130 133 131 132 131 128 125 119 113 114 114 117 115 118 117 115 114 109 106 103 98 95 91 80 61 38 16 23 53 61 61 64 68 69 68 65 66 66
101 110 125 136 137 130 132 134 133 127 122 121 117 111 106 101 100 100 100 107 111 110 110 108 105 101 98 95 85 62 32 14 14 51 67 64 64 65 65 64 62 61 60
102 113 124 132 141 142 135 128 125 123 120 118 112 105 102 100 95 92 96 99 110 110 111 111 107 104 102 96 85 57 20 3 25 55 62 66 63 60 57 58 56 55 54
100 113 127 133 138 143 147 142 137 133 130 127 122 114 110 106 101 98 98 102 109 114 115 115 111 108 102 99 91 56 15 10 45 58 63 67 61 55 52 52 47 46 45
128 121 120 134 142 146 151 147 149 150 147 146 136 136 134 122 113 112 102 101 106 110 118 120 114 110 108 119 114 69 353 15 48 63 68 65 55 49 45 46 41 37 35
144 141 133 137 142 144 146 144 141 144 144 148 137 144 143 129 116 109 111 106 111 116 116 116 117 136 123 102 109 119 28 30 50 60 72 64 50 35 28 30 24 19 19
130 153 136 137 144 152 149 150 143 141 142 141 142 140 133 127 122 122 120 123 123 124 122 130 150 130 106 95 99 106 52 47 66 67 75 66 44 19 6 4 360 355 350
165 174 158 143 157 168 158 158 148 147 150 143 139 148 134 131 133 128 130 121 124 118 137 150 138 114 105 102 81 87 83 65 79 73 82 70 45 11 355 352 344 332 327
191 181 166 165 165 171 166 159 155 150 150 143 145 147 141 133 131 132 140 140 143 129 128 136 137 130 127 100 75 55 54 65 93 97 100 81 46 12 343 332 328 317 308
201 179 166 181 173 175 172 174 162 155 144 151 151 148 142 139 136 139 140 141 148 142 129 118 120 118 115 97 121 143 63 47 54 82 85 108 100 4 346 326 321 315 308
180 175 174 177 171 183 175 181 168 158 150 156 147 147 145 140 137 137 139 145 137 129 133 140 142 128 127 142 164 145 91 86 68 62 68 63 74 41 343 337 326 314 305
173 165 160 162 163 172 176 169 170 158 156 160 155 149 152 151 150 144 147 145 138 127 121 142 145 149 149 160 185 193 194 174 186 164 187 206 184 27 344 315 316 319 313
117 127 130 150 149 153 154 156 163 164 162 166 162 157 157 159 159 152 149 150 146 143 141 139 154 131 139 156 186 233 221 197 187 192 210 219 208 224 254 286 282 293 300
73 86 113 124 147 145 157 169 176 195 189 170 160 164 163 161 165 157 150 152 157 163 170 163 144 135 125 112 93 311 277 219 200 202 197 203 218 235 271 278 270 264 274
75 61 85 112 145 165 177 184 181 183 185 156 149 159 166 161 162 164 160 163 168 165 165 163 142 140 145 122 154 169 273 289 264 225 196 212 234 259 264 264 266 271 259
68 354 343 21 195 188 162 148 137 138 139 155 167 173 175 169 163 160 161 160 166 167 180 182 170 162 173 197 172 167 178 220 281 261 229 220 230 250 263 256 256 267 270
15 358 10 358 290 180 153 162 167 176 186 194 172 164 164 169 161 157 160 162 167 169 173 184 179 176 170 190 219 244 220 184 181 284 279 247 236 253 259 264 265 270 273
62 33 13 12 351 360 185 187 191 187 188 156 155 162 171 173 169 165 165 166 173 175 177 182 174 173 179 188 192 210 245 264 221 215 262 262 264 257 251 257 257 256 261
64 43 18 16 7 3 343 241 196 192 184 167 173 181 176 173 175 173 170 174 184 183 182 186 182 182 184 187 194 192 194 199 214 219 245 260 267 267 266 268 270 274 259